[[{"header":{"parameterUnit":"m.s-1","parameterCategory":1,"la1":30.2992,"la2":30.254,"lo1":-89.0895,"lo2":-89.0443,"dy":0.0025,"dx":0.0025,"nx":19,"ny":19,"refTime":"2026-05-22T03:00:00:Z","depth":0,"parameterNumber":2,"parameterNumberName":"U-component_of_WINDS"},"data":[0,0,0,-0.6189,-0.619,-0.6283,-0.6283,-0.638,-0.6381,0,0,0,0,0,0,0,0,0,0,0,-0.6147,-0.6147,-0.6189,-0.6191,-0.6283,-0.6283,-0.638,-0.6381,0,0,0,0,0,0,0,0,0,0,0,-0.6147,-0.6147,-0.6147,-0.6191,-0.6283,-0.6284,-0.638,-0.6318,0,0,0,0,0,0,0,0,0,0,-0.6232,-0.6179,-0.6147,-0.6147,-0.6191,-0.6283,-0.6284,-0.6315,-0.6322,-0.6328,0,-0.6329,0,-0.6356,-0.6386,-0.6386,0,0,0,-0.6202,-0.6173,-0.6211,-0.6147,-0.6192,-0.6282,-0.6244,-0.6319,-0.6326,-0.6337,-0.6331,-0.6335,-0.6358,-0.6386,-0.6386,-0.6386,-0.6385,0,0,-0.6196,-0.6156,-0.6206,-0.6215,-0.6198,-0.6241,-0.6247,-0.6324,-0.6315,-0.6331,-0.6338,-0.636,-0.6387,-0.6387,-0.6386,-0.6386,0,0,0,-0.6174,-0.6152,-0.6189,-0.6211,-0.6229,-0.6244,-0.625,-0.6312,-0.6327,-0.6339,-0.6361,-0.6387,-0.6388,-0.6387,-0.6386,-0.632,0,0,0,-0.6172,-0.6139,-0.6186,-0.6162,-0.6227,-0.6271,-0.6236,-0.6322,-0.6332,-0.636,-0.6387,-0.6389,-0.6388,-0.6386,-0.6323,-0.6296,0,0,0,-0.6146,-0.6136,-0.6145,-0.616,-0.6198,-0.6271,-0.6291,-0.6325,-0.6344,-0.6386,-0.6389,-0.6388,-0.6387,-0.6326,-0.63,-0.6283,0,0,0,-0.6107,-0.6085,-0.6143,-0.6127,-0.6197,-0.6229,-0.6291,-0.6318,-0.6346,-0.6387,-0.6387,-0.6386,-0.6327,-0.6303,-0.6286,-0.6261,-0.6247,0,0,-0.6057,-0.6077,-0.6072,-0.6126,-0.6138,-0.6219,-0.6222,-0.6286,-0.6328,-0.6364,-0.6365,-0.6322,-0.6301,-0.6284,-0.6184,-0.6172,0,0,0,-0.6042,-0.6037,-0.605,-0.6074,-0.6122,-0.6161,-0.6229,-0.6254,-0.6287,-0.6338,-0.6314,-0.6302,-0.6294,-0.6283,-0.6274,-0.6269,-0.638,-0.638,-0.638,-0.5913,-0.5967,-0.5961,-0.6026,-0.6049,-0.612,-0.6144,-0.6189,-0.6237,-0.6231,-0.6241,-0.6174,-0.616,-0.6153,-0.6148,-0.6234,-0.6233,-0.6233,-0.6233,-0.5844,-0.5846,-0.5911,-0.5928,-0.5986,-0.6002,-0.607,-0.6104,-0.6128,-0.617,-0.6166,-0.6205,-0.6139,-0.6137,-0.6229,-0.6229,-0.623,-0.623,-0.6231,-0.5764,-0.5775,-0.5804,-0.5845,-0.5871,-0.594,-0.5959,-0.6012,-0.6062,-0.6058,-0.6075,-0.6076,-0.6084,-0.6063,-0.6062,-0.6062,-0.6062,-0.6062,-0.6062,-0.5669,-0.5705,-0.5715,-0.5765,-0.5788,-0.5825,-0.5897,-0.5922,-0.5963,-0.6,-0.6,-0.6048,-0.6123,-0.6139,-0.6058,-0.6059,-0.6059,-0.606,-0.606,-0.5578,-0.5608,-0.5622,-0.5645,-0.5709,-0.5731,-0.5799,-0.5844,-0.5873,-0.5881,-0.5932,-0.5978,-0.6003,-0.6011,-0.6026,-0.592,-0.592,-0.592,-0.592,-0.551,-0.5528,-0.5555,-0.5589,-0.5628,-0.569,-0.5706,-0.5763,-0.5826,-0.5848,-0.5871,-0.5895,-0.5901,-0.5923,-0.5933,-0.5947,-0.5824,-0.5824,-0.5824,-0.5457,-0.5482,-0.5484,-0.5545,-0.56,-0.5645,-0.5662,-0.5699,-0.5777,-0.5821,-0.5865,-0.5869,-0.5909,-0.5919,-0.5961,-0.5976,-0.6003,0,0]},{"header":{"parameterUnit":"m.s-1","parameterCategory":1,"la1":30.2992,"la2":30.254,"lo1":-89.0895,"lo2":-89.0443,"dy":0.0025,"dx":0.0025,"nx":19,"ny":19,"refTime":"2026-05-22T03:00:00:Z","depth":0,"parameterNumber":3,"parameterNumberName":"V-component_of_WINDS"},"data":[0,0,0,5.1917,5.1921,5.2118,5.2118,5.2366,5.2368,0,0,0,0,0,0,0,0,0,0,0,5.1859,5.1861,5.1916,5.1921,5.2117,5.2118,5.2366,5.2368,0,0,0,0,0,0,0,0,0,0,0,5.1859,5.1861,5.1863,5.1922,5.2117,5.2118,5.2365,5.2217,0,0,0,0,0,0,0,0,0,0,5.2027,5.1976,5.186,5.1863,5.1923,5.2117,5.2119,5.221,5.2227,5.2277,0,5.2324,0,5.235,5.2385,5.2386,0,0,0,5.192,5.1963,5.2015,5.1863,5.1925,5.2117,5.2029,5.222,5.2238,5.2298,5.2328,5.2337,5.2354,5.2387,5.2388,5.2685,5.2687,0,0,5.1909,5.1895,5.2002,5.2027,5.2,5.2022,5.2035,5.2231,5.2261,5.2329,5.2343,5.2359,5.2388,5.239,5.2684,5.2686,0,0,0,5.1879,5.1888,5.1935,5.2017,5.2052,5.2028,5.2042,5.2252,5.2269,5.2345,5.2361,5.239,5.2393,5.2682,5.2685,5.2743,0,0,0,5.1872,5.187,5.193,5.1924,5.2049,5.2156,5.2059,5.2255,5.2278,5.236,5.239,5.2395,5.2681,5.2684,5.2738,5.2773,0,0,0,5.1846,5.1867,5.1896,5.1922,5.2007,5.2153,5.2181,5.226,5.2288,5.2386,5.2396,5.268,5.2683,5.2734,5.2766,5.2847,0,0,0,5.1814,5.1946,5.1897,5.2049,5.2005,5.2188,5.2179,5.2316,5.2408,5.2391,5.2681,5.2684,5.2732,5.2762,5.2842,5.2912,5.294,0,0,5.1972,5.1964,5.2055,5.2017,5.2205,5.2159,5.2355,5.2452,5.2473,5.2612,5.262,5.274,5.2765,5.2845,5.3103,5.3125,0,0,0,5.21,5.2165,5.2218,5.2305,5.2382,5.245,5.2518,5.2553,5.2672,5.2543,5.2791,5.2807,5.2854,5.2888,5.2907,5.2948,5.27,5.2699,5.2699,5.2305,5.2325,5.2475,5.2518,5.2602,5.2669,5.2738,5.2796,5.2792,5.285,5.2892,5.3046,5.3085,5.31,5.3142,5.2931,5.2931,5.2931,5.2931,5.2538,5.2632,5.2622,5.2764,5.2783,5.2902,5.297,5.2962,5.3073,5.3017,5.306,5.2996,5.3124,5.3161,5.2936,5.2935,5.2935,5.2934,5.2934,5.2674,5.2723,5.2763,5.2889,5.2982,5.302,5.3127,5.314,5.3153,5.3195,5.3239,5.3238,5.3238,5.3215,5.3216,5.3216,5.3217,5.3217,5.3218,5.28,5.2843,5.2933,5.3024,5.3079,5.3154,5.322,5.3274,5.3338,5.3338,5.3339,5.3327,5.3133,5.3083,5.3226,5.3224,5.3223,5.3223,5.3222,5.3029,5.2978,5.3117,5.3173,5.3278,5.3368,5.3383,5.3492,5.3538,5.359,5.3568,5.3423,5.3415,5.34,5.3359,5.3565,5.3565,5.3565,5.3565,5.3143,5.314,5.3284,5.3371,5.3458,5.3485,5.3637,5.3687,5.3732,5.3761,5.3732,5.3679,5.3663,5.3665,5.3644,5.3606,5.387,5.387,5.3871,5.3285,5.329,5.3419,5.3463,5.3545,5.3614,5.3756,5.3855,5.3894,5.3883,5.3783,5.377,5.3685,5.3656,5.3644,5.3611,5.3542,0,0]}]]